contact:dominique.lefevre@mio.osupytheas.fr, maurice.libes@osupytheas.fr, didier.mallarino@osupytheas.fr
Project:EMSO http://www.emso-fr.org/EMSO-France
Depth: 2436.0 m
Title:EMSO Ligure Ouest : Data MII capteur MICROCAT
DateTime_Computer,Latitude,Longitude,Temperature,Conductivity,Pressure,DateTime_Instrument
DateTime_Computer,Latitude,Longitude,degC,S m-1,dbar,DateTime_Instrument
2022-11-21T00:02:28Z,42.805,6.029,13.3009,4.60056,2470.53,2022-11-21T02:04:26Z
2022-11-21T00:05:31Z,42.805,6.029,13.3008,4.60054,2470.553,2022-11-21T02:07:29Z
2022-11-21T00:08:34Z,42.805,6.029,13.3007,4.60056,2470.577,2022-11-21T02:10:32Z
2022-11-21T00:11:37Z,42.805,6.029,13.3009,4.60055,2470.553,2022-11-21T02:13:36Z
2022-11-21T00:14:40Z,42.805,6.029,13.3006,4.60055,2470.52,2022-11-21T02:16:39Z
2022-11-21T00:17:43Z,42.805,6.029,13.3009,4.60055,2470.577,2022-11-21T02:19:42Z
2022-11-21T00:20:46Z,42.805,6.029,13.3007,4.60054,2470.577,2022-11-21T02:22:45Z
2022-11-21T00:23:49Z,42.805,6.029,13.3009,4.60057,2470.577,2022-11-21T02:25:48Z
2022-11-21T00:26:52Z,42.805,6.029,13.3008,4.60054,2470.553,2022-11-21T02:28:51Z
2022-11-21T00:29:55Z,42.805,6.029,13.3008,4.60055,2470.553,2022-11-21T02:31:54Z
2022-11-21T00:32:58Z,42.805,6.029,13.3007,4.60057,2470.53,2022-11-21T02:34:57Z
2022-11-21T00:36:02Z,42.805,6.029,13.3008,4.60053,2470.563,2022-11-21T02:38:00Z
2022-11-21T00:39:05Z,42.805,6.029,13.3006,4.60055,2470.591,2022-11-21T02:41:03Z
2022-11-21T00:42:08Z,42.805,6.029,13.3007,4.60057,2470.577,2022-11-21T02:44:06Z
2022-11-21T00:45:11Z,42.805,6.029,13.3006,4.60056,2470.567,2022-11-21T02:47:09Z
2022-11-21T00:48:14Z,42.805,6.029,13.3006,4.60053,2470.553,2022-11-21T02:50:12Z
2022-11-21T00:51:17Z,42.805,6.029,13.3007,4.60053,2470.6,2022-11-21T02:53:16Z
2022-11-21T00:54:20Z,42.805,6.029,13.3007,4.60055,2470.591,2022-11-21T02:56:19Z
2022-11-21T00:57:23Z,42.805,6.029,13.3008,4.60052,2470.553,2022-11-21T02:59:22Z
2022-11-21T01:00:26Z,42.805,6.029,13.3006,4.60057,2470.553,2022-11-21T03:02:25Z
2022-11-21T01:03:29Z,42.805,6.029,13.3007,4.60053,2470.53,2022-11-21T03:05:28Z
2022-11-21T01:06:32Z,42.805,6.029,13.3006,4.60056,2470.53,2022-11-21T03:08:31Z
2022-11-21T01:09:35Z,42.805,6.029,13.3006,4.60053,2470.553,2022-11-21T03:11:34Z
2022-11-21T01:12:38Z,42.805,6.029,13.3010,4.60058,2470.6,2022-11-21T03:14:37Z
2022-11-21T01:15:42Z,42.805,6.029,13.3007,4.60055,2470.577,2022-11-21T03:17:40Z
2022-11-21T01:18:45Z,42.805,6.029,13.3006,4.60054,2470.553,2022-11-21T03:20:43Z
2022-11-21T01:21:48Z,42.805,6.029,13.3011,4.60056,2470.577,2022-11-21T03:23:46Z
2022-11-21T01:24:51Z,42.805,6.029,13.3007,4.60054,2470.637,2022-11-21T03:26:49Z
2022-11-21T01:27:54Z,42.805,6.029,13.3011,4.60052,2470.591,2022-11-21T03:29:53Z
2022-11-21T01:30:57Z,42.805,6.029,13.3007,4.60053,2470.577,2022-11-21T03:32:56Z
2022-11-21T01:34:00Z,42.805,6.029,13.3009,4.60053,2470.577,2022-11-21T03:35:59Z
2022-11-21T01:37:03Z,42.805,6.029,13.3008,4.60053,2470.591,2022-11-21T03:39:02Z
2022-11-21T01:40:06Z,42.805,6.029,13.3006,4.60053,2470.61,2022-11-21T03:42:05Z
2022-11-21T01:43:09Z,42.805,6.029,13.3006,4.60053,2470.577,2022-11-21T03:45:08Z
2022-11-21T01:46:12Z,42.805,6.029,13.3006,4.60052,2470.577,2022-11-21T03:48:11Z
2022-11-21T01:49:15Z,42.805,6.029,13.3006,4.60055,2470.577,2022-11-21T03:51:14Z
2022-11-21T01:52:18Z,42.805,6.029,13.3008,4.60056,2470.6,2022-11-21T03:54:17Z
2022-11-21T01:55:22Z,42.805,6.029,13.3010,4.60055,2470.591,2022-11-21T03:57:20Z
2022-11-21T01:58:25Z,42.805,6.029,13.3007,4.60054,2470.577,2022-11-21T04:00:23Z
2022-11-21T02:01:28Z,42.805,6.029,13.3009,4.60053,2470.624,2022-11-21T04:03:26Z
2022-11-21T02:04:31Z,42.805,6.029,13.3006,4.60052,2470.637,2022-11-21T04:06:29Z
2022-11-21T02:07:34Z,42.805,6.029,13.3008,4.60052,2470.553,2022-11-21T04:09:33Z
2022-11-21T02:10:37Z,42.805,6.029,13.3006,4.60053,2470.637,2022-11-21T04:12:36Z
2022-11-21T02:13:40Z,42.805,6.029,13.3007,4.60052,2470.624,2022-11-21T04:15:39Z
2022-11-21T02:16:43Z,42.805,6.029,13.3011,4.60052,2470.624,2022-11-21T04:18:42Z
2022-11-21T02:19:46Z,42.805,6.029,13.3007,4.60056,2470.637,2022-11-21T04:21:45Z
2022-11-21T02:22:49Z,42.805,6.029,13.3004,4.60052,2470.6,2022-11-21T04:24:48Z
2022-11-21T02:25:52Z,42.805,6.029,13.3003,4.60052,2470.637,2022-11-21T04:27:51Z
2022-11-21T02:28:55Z,42.805,6.029,13.3006,4.60054,2470.637,2022-11-21T04:30:54Z
2022-11-21T02:31:58Z,42.805,6.029,13.3008,4.60057,2470.586,2022-11-21T04:33:57Z
2022-11-21T02:35:02Z,42.805,6.029,13.3009,4.60060,2470.646,2022-11-21T04:37:00Z
2022-11-21T02:38:05Z,42.805,6.029,13.3007,4.60056,2470.661,2022-11-21T04:40:03Z
2022-11-21T02:41:08Z,42.805,6.029,13.3009,4.60055,2470.646,2022-11-21T04:43:06Z
2022-11-21T02:44:11Z,42.805,6.029,13.3007,4.60052,2470.646,2022-11-21T04:46:09Z
2022-11-21T02:47:14Z,42.805,6.029,13.3006,4.60053,2470.6,2022-11-21T04:49:13Z
2022-11-21T02:50:17Z,42.805,6.029,13.3009,4.60055,2470.646,2022-11-21T04:52:16Z
2022-11-21T02:53:20Z,42.805,6.029,13.3011,4.60053,2470.624,2022-11-21T04:55:19Z
2022-11-21T02:56:23Z,42.805,6.029,13.3009,4.60054,2470.624,2022-11-21T04:58:22Z
2022-11-21T02:59:26Z,42.805,6.029,13.3008,4.60055,2470.6,2022-11-21T05:01:25Z
2022-11-21T03:02:29Z,42.805,6.029,13.3006,4.60052,2470.6,2022-11-21T05:04:28Z
2022-11-21T03:05:32Z,42.805,6.029,13.3006,4.60054,2470.637,2022-11-21T05:07:31Z
2022-11-21T03:08:35Z,42.805,6.029,13.3005,4.60057,2470.646,2022-11-21T05:10:34Z
2022-11-21T03:11:39Z,42.805,6.029,13.3006,4.60053,2470.646,2022-11-21T05:13:37Z
2022-11-21T03:14:42Z,42.805,6.029,13.3010,4.60057,2470.624,2022-11-21T05:16:40Z
2022-11-21T03:17:45Z,42.805,6.029,13.3010,4.60053,2470.646,2022-11-21T05:19:43Z
2022-11-21T03:20:48Z,42.805,6.029,13.3007,4.60055,2470.646,2022-11-21T05:22:46Z
2022-11-21T03:23:51Z,42.805,6.029,13.3008,4.60054,2470.646,2022-11-21T05:25:49Z
2022-11-21T03:26:54Z,42.805,6.029,13.3009,4.60053,2470.67,2022-11-21T05:28:53Z
2022-11-21T03:29:57Z,42.805,6.029,13.3007,4.60053,2470.661,2022-11-21T05:31:56Z
2022-11-21T03:33:00Z,42.805,6.029,13.3011,4.60052,2470.67,2022-11-21T05:34:59Z
2022-11-21T03:36:03Z,42.805,6.029,13.3008,4.60052,2470.693,2022-11-21T05:38:02Z
2022-11-21T03:39:06Z,42.805,6.029,13.3009,4.60053,2470.661,2022-11-21T05:41:05Z
2022-11-21T03:42:09Z,42.805,6.029,13.3007,4.60053,2470.67,2022-11-21T05:44:08Z
2022-11-21T03:45:12Z,42.805,6.029,13.3008,4.60054,2470.656,2022-11-21T05:47:11Z
2022-11-21T03:48:15Z,42.805,6.029,13.3008,4.60055,2470.646,2022-11-21T05:50:14Z
2022-11-21T03:51:18Z,42.805,6.029,13.3011,4.60052,2470.67,2022-11-21T05:53:17Z
2022-11-21T03:54:22Z,42.805,6.029,13.3008,4.60054,2470.693,2022-11-21T05:56:20Z
2022-11-21T03:57:25Z,42.805,6.029,13.3009,4.60056,2470.684,2022-11-21T05:59:23Z
2022-11-21T04:00:28Z,42.805,6.029,13.3007,4.60054,2470.646,2022-11-21T06:02:26Z
2022-11-21T04:03:31Z,42.805,6.029,13.3008,4.60054,2470.684,2022-11-21T06:05:29Z
2022-11-21T04:06:34Z,42.805,6.029,13.3011,4.60052,2470.67,2022-11-21T06:08:33Z
2022-11-21T04:09:37Z,42.805,6.029,13.3006,4.60054,2470.707,2022-11-21T06:11:36Z
2022-11-21T04:12:40Z,42.805,6.029,13.3009,4.60059,2470.693,2022-11-21T06:14:39Z
2022-11-21T04:15:43Z,42.805,6.029,13.3007,4.60054,2470.684,2022-11-21T06:17:42Z
2022-11-21T04:18:46Z,42.805,6.029,13.3009,4.60056,2470.693,2022-11-21T06:20:45Z
2022-11-21T04:21:49Z,42.805,6.029,13.3006,4.60058,2470.693,2022-11-21T06:23:48Z
2022-11-21T04:24:52Z,42.805,6.029,13.3010,4.60055,2470.693,2022-11-21T06:26:51Z
2022-11-21T04:27:55Z,42.805,6.029,13.3006,4.60054,2470.707,2022-11-21T06:29:54Z
2022-11-21T04:30:58Z,42.805,6.029,13.3008,4.60053,2470.703,2022-11-21T06:32:57Z
2022-11-21T04:34:02Z,42.805,6.029,13.3007,4.60057,2470.693,2022-11-21T06:36:00Z
2022-11-21T04:37:05Z,42.805,6.029,13.3006,4.60056,2470.707,2022-11-21T06:39:03Z
2022-11-21T04:40:08Z,42.805,6.029,13.3011,4.60056,2470.717,2022-11-21T06:42:06Z
2022-11-21T04:43:11Z,42.805,6.029,13.3010,4.60054,2470.717,2022-11-21T06:45:09Z
2022-11-21T04:46:14Z,42.805,6.029,13.3011,4.60053,2470.67,2022-11-21T06:48:13Z
2022-11-21T04:49:17Z,42.805,6.029,13.3009,4.60054,2470.707,2022-11-21T06:51:16Z
2022-11-21T04:52:20Z,42.805,6.029,13.3009,4.60054,2470.707,2022-11-21T06:54:19Z
2022-11-21T04:55:23Z,42.805,6.029,13.3012,4.60057,2470.693,2022-11-21T06:57:22Z
2022-11-21T04:58:26Z,42.805,6.029,13.3009,4.60056,2470.73,2022-11-21T07:00:25Z
2022-11-21T05:01:29Z,42.805,6.029,13.3008,4.60057,2470.717,2022-11-21T07:03:28Z
2022-11-21T05:04:32Z,42.805,6.029,13.3011,4.60057,2470.74,2022-11-21T07:06:31Z
2022-11-21T05:07:35Z,42.805,6.029,13.3008,4.60054,2470.717,2022-11-21T07:09:34Z
2022-11-21T05:10:38Z,42.805,6.029,13.3008,4.60057,2470.717,2022-11-21T07:12:37Z
2022-11-21T05:13:42Z,42.805,6.029,13.3009,4.60054,2470.74,2022-11-21T07:15:40Z
2022-11-21T05:16:45Z,42.805,6.029,13.3009,4.60052,2470.74,2022-11-21T07:18:43Z
2022-11-21T05:19:48Z,42.805,6.029,13.3006,4.60053,2470.754,2022-11-21T07:21:46Z
2022-11-21T05:22:51Z,42.805,6.029,13.3011,4.60056,2470.707,2022-11-21T07:24:49Z
2022-11-21T05:25:54Z,42.805,6.029,13.3009,4.60052,2470.693,2022-11-21T07:27:53Z
2022-11-21T05:28:57Z,42.805,6.029,13.3006,4.60059,2470.73,2022-11-21T07:30:56Z
2022-11-21T05:32:00Z,42.805,6.029,13.3007,4.60052,2470.717,2022-11-21T07:33:59Z
2022-11-21T05:35:03Z,42.805,6.029,13.3008,4.60052,2470.67,2022-11-21T07:37:02Z
2022-11-21T05:38:06Z,42.805,6.029,13.3011,4.60052,2470.717,2022-11-21T07:40:05Z
2022-11-21T05:41:09Z,42.805,6.029,13.3008,4.60055,2470.693,2022-11-21T07:43:08Z
2022-11-21T05:44:12Z,42.805,6.029,13.3010,4.60052,2470.707,2022-11-21T07:46:11Z
2022-11-21T05:47:15Z,42.805,6.029,13.3008,4.60054,2470.707,2022-11-21T07:49:14Z
2022-11-21T05:50:18Z,42.805,6.029,13.3009,4.60052,2470.73,2022-11-21T07:52:17Z
2022-11-21T05:53:22Z,42.805,6.029,13.3005,4.60052,2470.717,2022-11-21T07:55:20Z
2022-11-21T05:56:25Z,42.805,6.029,13.3006,4.60061,2470.717,2022-11-21T07:58:23Z
2022-11-21T05:59:28Z,42.805,6.029,13.3009,4.60053,2470.693,2022-11-21T08:01:26Z
2022-11-21T06:02:31Z,42.805,6.029,13.3006,4.60052,2470.707,2022-11-21T08:04:29Z
2022-11-21T06:05:34Z,42.805,6.029,13.3004,4.60062,2470.717,2022-11-21T08:07:33Z
2022-11-21T06:08:37Z,42.805,6.029,13.3009,4.60058,2470.717,2022-11-21T08:10:36Z
2022-11-21T06:11:40Z,42.805,6.029,13.3004,4.60053,2470.693,2022-11-21T08:13:39Z
2022-11-21T06:14:43Z,42.805,6.029,13.3006,4.60052,2470.73,2022-11-21T08:16:42Z
2022-11-21T06:17:46Z,42.805,6.029,13.3009,4.60058,2470.693,2022-11-21T08:19:45Z
2022-11-21T06:20:49Z,42.805,6.029,13.3006,4.60054,2470.717,2022-11-21T08:22:48Z
2022-11-21T06:23:52Z,42.805,6.029,13.3011,4.60056,2470.73,2022-11-21T08:25:51Z
2022-11-21T06:26:55Z,42.805,6.029,13.3007,4.60062,2470.707,2022-11-21T08:28:54Z
2022-11-21T06:29:58Z,42.805,6.029,13.3011,4.60055,2470.73,2022-11-21T08:31:57Z
2022-11-21T06:33:02Z,42.805,6.029,13.3006,4.60056,2470.693,2022-11-21T08:35:00Z
2022-11-21T06:36:05Z,42.805,6.029,13.3004,4.60054,2470.73,2022-11-21T08:38:03Z
2022-11-21T06:39:08Z,42.805,6.029,13.3009,4.60053,2470.717,2022-11-21T08:41:06Z
2022-11-21T06:42:11Z,42.805,6.029,13.3009,4.60057,2470.73,2022-11-21T08:44:09Z
2022-11-21T06:45:14Z,42.805,6.029,13.3004,4.60056,2470.717,2022-11-21T08:47:13Z
2022-11-21T06:48:17Z,42.805,6.029,13.3006,4.60061,2470.693,2022-11-21T08:50:16Z
2022-11-21T06:51:20Z,42.805,6.029,13.3007,4.60055,2470.693,2022-11-21T08:53:19Z
2022-11-21T06:54:23Z,42.805,6.029,13.3006,4.60053,2470.73,2022-11-21T08:56:22Z
2022-11-21T06:57:26Z,42.805,6.029,13.3008,4.60057,2470.67,2022-11-21T08:59:25Z
2022-11-21T07:00:29Z,42.805,6.029,13.3007,4.60057,2470.717,2022-11-21T09:02:28Z
2022-11-21T07:03:32Z,42.805,6.029,13.3006,4.60052,2470.703,2022-11-21T09:05:31Z
2022-11-21T07:06:35Z,42.805,6.029,13.3003,4.60062,2470.67,2022-11-21T09:08:34Z
2022-11-21T07:09:39Z,42.805,6.029,13.3006,4.60053,2470.707,2022-11-21T09:11:37Z
2022-11-21T07:12:42Z,42.805,6.029,13.3009,4.60062,2470.693,2022-11-21T09:14:40Z
2022-11-21T07:15:45Z,42.805,6.029,13.3009,4.60054,2470.693,2022-11-21T09:17:43Z
2022-11-21T07:18:48Z,42.805,6.029,13.3011,4.60055,2470.707,2022-11-21T09:20:46Z
2022-11-21T07:21:51Z,42.805,6.029,13.3007,4.60074,2470.684,2022-11-21T09:23:49Z
2022-11-21T07:24:54Z,42.805,6.029,13.3010,4.60054,2470.707,2022-11-21T09:26:53Z
2022-11-21T07:27:57Z,42.805,6.029,13.3012,4.60054,2470.684,2022-11-21T09:29:56Z
2022-11-21T07:31:00Z,42.805,6.029,13.3008,4.60059,2470.67,2022-11-21T09:32:59Z
2022-11-21T07:34:03Z,42.805,6.029,13.3011,4.60056,2470.693,2022-11-21T09:36:02Z
2022-11-21T07:37:06Z,42.805,6.029,13.3010,4.60062,2470.693,2022-11-21T09:39:05Z
2022-11-21T07:40:09Z,42.805,6.029,13.3019,4.60061,2470.67,2022-11-21T09:42:08Z
2022-11-21T07:43:12Z,42.805,6.029,13.3018,4.60064,2470.67,2022-11-21T09:45:11Z
2022-11-21T07:46:15Z,42.805,6.029,13.3015,4.60062,2470.684,2022-11-21T09:48:14Z
2022-11-21T07:49:19Z,42.805,6.029,13.3022,4.60061,2470.646,2022-11-21T09:51:17Z
2022-11-21T07:52:22Z,42.805,6.029,13.3017,4.60063,2470.693,2022-11-21T09:54:20Z
2022-11-21T07:55:25Z,42.805,6.029,13.3012,4.60068,2470.67,2022-11-21T09:57:23Z
2022-11-21T07:58:28Z,42.805,6.029,13.3011,4.60065,2470.656,2022-11-21T10:00:26Z
2022-11-21T08:01:31Z,42.805,6.029,13.3010,4.60073,2470.693,2022-11-21T10:03:30Z
2022-11-21T08:04:34Z,42.805,6.029,13.3009,4.60067,2470.684,2022-11-21T10:06:33Z
2022-11-21T08:07:37Z,42.805,6.029,13.3009,4.60066,2470.67,2022-11-21T10:09:36Z
2022-11-21T08:10:40Z,42.805,6.029,13.3009,4.60068,2470.67,2022-11-21T10:12:39Z
2022-11-21T08:13:43Z,42.805,6.029,13.3008,4.60062,2470.684,2022-11-21T10:15:42Z
2022-11-21T08:16:46Z,42.805,6.029,13.3005,4.60064,2470.661,2022-11-21T10:18:45Z
2022-11-21T08:19:49Z,42.805,6.029,13.3005,4.60092,2470.656,2022-11-21T10:21:48Z
2022-11-21T08:22:52Z,42.805,6.029,13.3006,4.60075,2470.646,2022-11-21T10:24:51Z
2022-11-21T08:25:56Z,42.805,6.029,13.3008,4.60064,2470.67,2022-11-21T10:27:54Z
2022-11-21T08:28:59Z,42.805,6.029,13.3006,4.60076,2470.67,2022-11-21T10:30:57Z
2022-11-21T08:32:02Z,42.805,6.029,13.3006,4.60075,2470.646,2022-11-21T10:34:00Z
2022-11-21T08:35:05Z,42.805,6.029,13.3006,4.60073,2470.624,2022-11-21T10:37:03Z
2022-11-21T08:38:08Z,42.805,6.029,13.3005,4.60070,2470.67,2022-11-21T10:40:07Z
2022-11-21T08:41:11Z,42.805,6.029,13.3008,4.60065,2470.67,2022-11-21T10:43:10Z
2022-11-21T08:44:14Z,42.805,6.029,13.3006,4.60068,2470.646,2022-11-21T10:46:13Z
2022-11-21T08:47:17Z,42.805,6.029,13.3006,4.60067,2470.637,2022-11-21T10:49:16Z
2022-11-21T08:50:20Z,42.805,6.029,13.3006,4.60061,2470.646,2022-11-21T10:52:19Z
2022-11-21T08:53:23Z,42.805,6.029,13.3008,4.60064,2470.646,2022-11-21T10:55:22Z
2022-11-21T08:56:26Z,42.805,6.029,13.3005,4.60059,2470.646,2022-11-21T10:58:25Z
2022-11-21T08:59:29Z,42.805,6.029,13.3006,4.60060,2470.624,2022-11-21T11:01:28Z
2022-11-21T09:02:32Z,42.805,6.029,13.3009,4.60059,2470.661,2022-11-21T11:04:31Z
2022-11-21T09:05:36Z,42.805,6.029,13.3007,4.60059,2470.646,2022-11-21T11:07:34Z
2022-11-21T09:08:39Z,42.805,6.029,13.3008,4.60059,2470.624,2022-11-21T11:10:37Z
2022-11-21T09:11:42Z,42.805,6.029,13.3005,4.60059,2470.661,2022-11-21T11:13:40Z
2022-11-21T09:14:45Z,42.805,6.029,13.3004,4.60060,2470.67,2022-11-21T11:16:44Z
2022-11-21T09:17:48Z,42.805,6.029,13.3010,4.60062,2470.646,2022-11-21T11:19:47Z
2022-11-21T09:20:51Z,42.805,6.029,13.3009,4.60060,2470.6,2022-11-21T11:22:50Z
2022-11-21T09:23:54Z,42.805,6.029,13.3006,4.60062,2470.624,2022-11-21T11:25:53Z
2022-11-21T09:26:57Z,42.805,6.029,13.3012,4.60062,2470.624,2022-11-21T11:28:56Z
2022-11-21T09:30:00Z,42.805,6.029,13.3011,4.60060,2470.6,2022-11-21T11:31:59Z
2022-11-21T09:33:03Z,42.805,6.029,13.3006,4.60068,2470.624,2022-11-21T11:35:02Z
2022-11-21T09:36:06Z,42.805,6.029,13.3009,4.60059,2470.614,2022-11-21T11:38:05Z
2022-11-21T09:39:10Z,42.805,6.029,13.3006,4.60059,2470.624,2022-11-21T11:41:08Z
2022-11-21T09:42:13Z,42.805,6.029,13.3011,4.60060,2470.646,2022-11-21T11:44:11Z
2022-11-21T09:45:16Z,42.805,6.029,13.3008,4.60062,2470.633,2022-11-21T11:47:14Z
2022-11-21T09:48:19Z,42.805,6.029,13.3006,4.60061,2470.624,2022-11-21T11:50:17Z
2022-11-21T09:51:22Z,42.805,6.029,13.3006,4.60064,2470.637,2022-11-21T11:53:21Z
2022-11-21T09:54:25Z,42.805,6.029,13.3007,4.60061,2470.6,2022-11-21T11:56:24Z
2022-11-21T09:57:28Z,42.805,6.029,13.3008,4.60060,2470.646,2022-11-21T11:59:27Z
2022-11-21T10:00:31Z,42.805,6.029,13.3011,4.60062,2470.624,2022-11-21T12:02:30Z
2022-11-21T10:03:34Z,42.805,6.029,13.3012,4.60063,2470.6,2022-11-21T12:05:33Z
2022-11-21T10:06:37Z,42.805,6.029,13.3009,4.60058,2470.614,2022-11-21T12:08:36Z
2022-11-21T10:09:40Z,42.805,6.029,13.3009,4.60058,2470.614,2022-11-21T12:11:39Z
2022-11-21T10:12:43Z,42.805,6.029,13.3009,4.60062,2470.614,2022-11-21T12:14:42Z
2022-11-21T10:15:46Z,42.805,6.029,13.3009,4.60059,2470.577,2022-11-21T12:17:45Z
2022-11-21T10:18:50Z,42.805,6.029,13.3006,4.60065,2470.614,2022-11-21T12:20:48Z
2022-11-21T10:21:53Z,42.805,6.029,13.3008,4.60059,2470.6,2022-11-21T12:23:51Z
2022-11-21T10:24:56Z,42.805,6.029,13.3008,4.60061,2470.6,2022-11-21T12:26:54Z
2022-11-21T10:27:59Z,42.805,6.029,13.3003,4.60058,2470.6,2022-11-21T12:29:58Z
2022-11-21T10:31:02Z,42.805,6.029,13.3009,4.60057,2470.614,2022-11-21T12:33:01Z
2022-11-21T10:34:05Z,42.805,6.029,13.3007,4.60056,2470.614,2022-11-21T12:36:04Z
2022-11-21T10:37:08Z,42.805,6.029,13.3009,4.60058,2470.6,2022-11-21T12:39:07Z
2022-11-21T10:40:11Z,42.805,6.029,13.3010,4.60057,2470.6,2022-11-21T12:42:10Z
2022-11-21T10:43:14Z,42.805,6.029,13.3011,4.60057,2470.637,2022-11-21T12:45:13Z
2022-11-21T10:46:17Z,42.805,6.029,13.3009,4.60066,2470.614,2022-11-21T12:48:16Z
2022-11-21T10:49:20Z,42.805,6.029,13.3014,4.60057,2470.6,2022-11-21T12:51:19Z
2022-11-21T10:52:24Z,42.805,6.029,13.3008,4.60057,2470.577,2022-11-21T12:54:22Z
2022-11-21T10:55:27Z,42.805,6.029,13.3009,4.60060,2470.6,2022-11-21T12:57:25Z
2022-11-21T10:58:30Z,42.805,6.029,13.3010,4.60057,2470.624,2022-11-21T13:00:28Z
2022-11-21T11:01:33Z,42.805,6.029,13.3014,4.60057,2470.577,2022-11-21T13:03:31Z
2022-11-21T11:04:36Z,42.805,6.029,13.3006,4.60058,2470.614,2022-11-21T13:06:35Z
2022-11-21T11:07:39Z,42.805,6.029,13.3008,4.60059,2470.6,2022-11-21T13:09:38Z
2022-11-21T11:10:42Z,42.805,6.029,13.3006,4.60058,2470.577,2022-11-21T13:12:41Z
2022-11-21T11:13:45Z,42.805,6.029,13.3009,4.60057,2470.6,2022-11-21T13:15:44Z
2022-11-21T11:16:48Z,42.805,6.029,13.3007,4.60057,2470.577,2022-11-21T13:18:47Z
2022-11-21T11:19:51Z,42.805,6.029,13.3007,4.60057,2470.624,2022-11-21T13:21:50Z
2022-11-21T11:22:54Z,42.805,6.029,13.3005,4.60054,2470.577,2022-11-21T13:24:53Z
2022-11-21T11:25:57Z,42.805,6.029,13.3006,4.60055,2470.6,2022-11-21T13:27:56Z
2022-11-21T11:29:00Z,42.805,6.029,13.3006,4.60054,2470.6,2022-11-21T13:30:59Z
2022-11-21T11:32:04Z,42.805,6.029,13.3005,4.60057,2470.6,2022-11-21T13:34:02Z
2022-11-21T11:35:07Z,42.805,6.029,13.3008,4.60061,2470.577,2022-11-21T13:37:05Z
2022-11-21T11:38:10Z,42.805,6.029,13.3007,4.60057,2470.6,2022-11-21T13:40:08Z
2022-11-21T11:41:13Z,42.805,6.029,13.3005,4.60055,2470.6,2022-11-21T13:43:12Z
2022-11-21T11:44:16Z,42.805,6.029,13.3007,4.60057,2470.6,2022-11-21T13:46:15Z
2022-11-21T11:47:19Z,42.805,6.029,13.3007,4.60060,2470.577,2022-11-21T13:49:18Z
2022-11-21T11:50:22Z,42.805,6.029,13.3006,4.60058,2470.577,2022-11-21T13:52:21Z
2022-11-21T11:53:25Z,42.805,6.029,13.3008,4.60055,2470.591,2022-11-21T13:55:24Z
2022-11-21T11:56:28Z,42.805,6.029,13.3010,4.60055,2470.6,2022-11-21T13:58:27Z
2022-11-21T11:59:31Z,42.805,6.029,13.3007,4.60055,2470.577,2022-11-21T14:01:30Z
2022-11-21T12:02:34Z,42.805,6.029,13.3009,4.60055,2470.637,2022-11-21T14:04:33Z
2022-11-21T12:05:37Z,42.805,6.029,13.3005,4.60054,2470.591,2022-11-21T14:07:36Z
2022-11-21T12:08:41Z,42.805,6.029,13.3007,4.60056,2470.6,2022-11-21T14:10:39Z
2022-11-21T12:11:44Z,42.805,6.029,13.3004,4.60054,2470.567,2022-11-21T14:13:42Z
2022-11-21T12:14:47Z,42.805,6.029,13.3008,4.60055,2470.614,2022-11-21T14:16:45Z
2022-11-21T12:17:50Z,42.805,6.029,13.3005,4.60057,2470.577,2022-11-21T14:19:48Z
2022-11-21T12:20:53Z,42.805,6.029,13.3008,4.60057,2470.6,2022-11-21T14:22:52Z
2022-11-21T12:23:56Z,42.805,6.029,13.3009,4.60055,2470.6,2022-11-21T14:25:55Z
2022-11-21T12:26:59Z,42.805,6.029,13.3009,4.60055,2470.624,2022-11-21T14:28:58Z
2022-11-21T12:30:02Z,42.805,6.029,13.3010,4.60055,2470.553,2022-11-21T14:32:01Z
2022-11-21T12:33:05Z,42.805,6.029,13.3004,4.60054,2470.6,2022-11-21T14:35:04Z
2022-11-21T12:36:08Z,42.805,6.029,13.3009,4.60055,2470.6,2022-11-21T14:38:07Z
2022-11-21T12:39:11Z,42.805,6.029,13.3009,4.60057,2470.6,2022-11-21T14:41:10Z
2022-11-21T12:42:14Z,42.805,6.029,13.3010,4.60057,2470.586,2022-11-21T14:44:13Z
2022-11-21T12:45:18Z,42.805,6.029,13.3008,4.60056,2470.614,2022-11-21T14:47:16Z
2022-11-21T12:48:21Z,42.805,6.029,13.3008,4.60058,2470.577,2022-11-21T14:50:19Z
2022-11-21T12:51:24Z,42.805,6.029,13.3008,4.60061,2470.6,2022-11-21T14:53:22Z
2022-11-21T12:54:27Z,42.805,6.029,13.3004,4.60053,2470.591,2022-11-21T14:56:26Z
2022-11-21T12:57:30Z,42.805,6.029,13.3006,4.60057,2470.553,2022-11-21T14:59:29Z
2022-11-21T13:00:33Z,42.805,6.029,13.3005,4.60054,2470.614,2022-11-21T15:02:32Z
2022-11-21T13:03:36Z,42.805,6.029,13.3007,4.60055,2470.6,2022-11-21T15:05:35Z
2022-11-21T13:06:39Z,42.805,6.029,13.3006,4.60055,2470.624,2022-11-21T15:08:38Z
2022-11-21T13:09:42Z,42.805,6.029,13.3002,4.60054,2470.614,2022-11-21T15:11:41Z
2022-11-21T13:12:45Z,42.805,6.029,13.3004,4.60053,2470.577,2022-11-21T15:14:44Z
2022-11-21T13:15:48Z,42.805,6.029,13.3009,4.60054,2470.624,2022-11-21T15:17:47Z
2022-11-21T13:18:51Z,42.805,6.029,13.3013,4.60057,2470.637,2022-11-21T15:20:50Z
2022-11-21T13:21:55Z,42.805,6.029,13.3006,4.60054,2470.614,2022-11-21T15:23:53Z
2022-11-21T13:24:58Z,42.805,6.029,13.3007,4.60057,2470.6,2022-11-21T15:26:56Z
2022-11-21T13:28:01Z,42.805,6.029,13.3009,4.60057,2470.577,2022-11-21T15:29:59Z
2022-11-21T13:31:04Z,42.805,6.029,13.3008,4.60054,2470.614,2022-11-21T15:33:02Z
2022-11-21T13:34:07Z,42.805,6.029,13.3007,4.60059,2470.661,2022-11-21T15:36:06Z
2022-11-21T13:37:10Z,42.805,6.029,13.3009,4.60058,2470.577,2022-11-21T15:39:09Z
2022-11-21T13:40:13Z,42.805,6.029,13.3008,4.60059,2470.624,2022-11-21T15:42:12Z
2022-11-21T13:43:16Z,42.805,6.029,13.3009,4.60057,2470.661,2022-11-21T15:45:15Z
2022-11-21T13:46:19Z,42.805,6.029,13.3008,4.60057,2470.577,2022-11-21T15:48:18Z
2022-11-21T13:49:22Z,42.805,6.029,13.3004,4.60058,2470.6,2022-11-21T15:51:21Z
2022-11-21T13:52:25Z,42.805,6.029,13.3009,4.60057,2470.624,2022-11-21T15:54:24Z
2022-11-21T13:55:28Z,42.805,6.029,13.3010,4.60056,2470.624,2022-11-21T15:57:27Z
2022-11-21T13:58:32Z,42.805,6.029,13.3010,4.60056,2470.624,2022-11-21T16:00:30Z
2022-11-21T14:01:35Z,42.805,6.029,13.3009,4.60058,2470.637,2022-11-21T16:03:33Z
2022-11-21T14:04:38Z,42.805,6.029,13.3009,4.60056,2470.637,2022-11-21T16:06:36Z
2022-11-21T14:07:41Z,42.805,6.029,13.3014,4.60059,2470.624,2022-11-21T16:09:39Z
2022-11-21T14:10:44Z,42.805,6.029,13.3006,4.60055,2470.614,2022-11-21T16:12:43Z
2022-11-21T14:13:47Z,42.805,6.029,13.3003,4.60054,2470.637,2022-11-21T16:15:46Z
2022-11-21T14:16:50Z,42.805,6.029,13.3007,4.60057,2470.637,2022-11-21T16:18:49Z
2022-11-21T14:19:53Z,42.805,6.029,13.3007,4.60056,2470.67,2022-11-21T16:21:52Z
2022-11-21T14:22:56Z,42.805,6.029,13.3004,4.60055,2470.624,2022-11-21T16:24:55Z
2022-11-21T14:25:59Z,42.805,6.029,13.3009,4.60055,2470.624,2022-11-21T16:27:58Z
2022-11-21T14:29:02Z,42.805,6.029,13.3006,4.60057,2470.633,2022-11-21T16:31:01Z
2022-11-21T14:32:05Z,42.805,6.029,13.3009,4.60054,2470.624,2022-11-21T16:34:04Z
2022-11-21T14:35:09Z,42.805,6.029,13.3009,4.60055,2470.698,2022-11-21T16:37:07Z
2022-11-21T14:38:12Z,42.805,6.029,13.3007,4.60055,2470.661,2022-11-21T16:40:10Z
2022-11-21T14:41:15Z,42.805,6.029,13.3011,4.60054,2470.646,2022-11-21T16:43:13Z
2022-11-21T14:44:18Z,42.805,6.029,13.3009,4.60053,2470.67,2022-11-21T16:46:16Z
2022-11-21T14:47:21Z,42.805,6.029,13.3008,4.60057,2470.646,2022-11-21T16:49:20Z
2022-11-21T14:50:24Z,42.805,6.029,13.3009,4.60055,2470.646,2022-11-21T16:52:23Z
2022-11-21T14:53:27Z,42.805,6.029,13.3007,4.60054,2470.67,2022-11-21T16:55:26Z
2022-11-21T14:56:30Z,42.805,6.029,13.3006,4.60056,2470.661,2022-11-21T16:58:29Z
2022-11-21T14:59:33Z,42.805,6.029,13.3005,4.60056,2470.684,2022-11-21T17:01:32Z
2022-11-21T15:02:36Z,42.805,6.029,13.3009,4.60053,2470.67,2022-11-21T17:04:35Z